[Date Prev][Date Next][Thread Prev][Thread Next] - [Date Index][Thread Index][Author Index]

2 Line ISS Keps 6-8



ISS
1 25544U 98067A   02159.18090600  .00101274  00000-0  11845-2 0  5409
2 25544  51.6352  98.1704 0005706 160.8244 339.4762 15.60745984202621


----
Via the sarex mailing list at AMSAT.ORG courtesy of AMSAT-NA.
To unsubscribe, send "unsubscribe sarex" to Majordomo@amsat.org



AMSAT Top AMSAT Home